Regional Weather Roundup
Issued by NWS

Home | Current Version | Previous Version | Graphics & Text | Print | Product List | Glossary On
Versions: 1 2 3 4 5 6 7 8 9 10 11 12 13 14 15 16 17 18 19 20 21 22 23 24 25 26 27 28 29 30 31 32 33 34 35 36 37 38 39 40 41 42 43 44 45 46 47 48 49 50
000
ASUS43 KDTX 202201
RWRMI
MICHIGAN HOURLY REGIONAL WEATHER ROUNDUP
NATIONAL WEATHER SERVICE DETROIT/PONTIAC MI
500 PM EST FRI JAN 20 2017

NOTE: "FAIR" INDICATES FEW OR NO CLOUDS BELOW 12,000 FEET WITH NO
SIGNIFICANT WEATHER AND/OR OBSTRUCTION TO VISIBILITY.

MIZ047>049-052>055-059>063-066>070-074>076-081>083-202300-
SOUTHEAST LOWER MICHIGAN

CITY           SKY/WX    TMP DP  RH WIND       PRES   REMARKS
ADRIAN         CLOUDY    41  41 100 SW3       29.68R FOG
ALMA           FOG       34  33  99 CALM      29.68F VSB 1
ANN ARBOR      FOG       39  39 100 S3        29.68S VSB 3/4
BAD AXE        LGT SNOW  34  34 100 CALM      29.69R
CARO           CLOUDY    35  35  99 CALM      29.67S FOG
DETROIT CITY   FOG       39  39 100 N3        29.68R VSB 1/4
DETROIT        FOG       40  40 100 CALM      29.69S VSB 1/2
FLINT          FOG       37  36  96 S3        29.68S VSB 1/2
GROSSE ILE     FOG       37  36  99 CALM      29.68S VSB 1/4
HILLSDALE      FOG       39  39 100 SW3       29.66R VSB 1
HOWELL         FOG       37  37  97 CALM      29.67R VSB 1/4

CITY           SKY/WX    TMP DP  RH WIND       PRES   REMARKS
JACKSON        CLOUDY    40  39  97 CALM      29.66R FOG
LAMBERTVILLE   CLOUDY    45  43  90 SW3       29.68F FOG
LANSING        FOG       37  35  92 CALM      29.67S VSB 1
LAPEER         FOG       36  36 100 S3        29.68R VSB 1/2
MASON          FOG       37  37  99 CALM      29.67R VSB 1/4
MONROE         CLOUDY    42  42 100 CALM      29.68R FOG
MT. CLEMENS    FOG       38  38 100 CALM      29.66R VSB 1/4
PONTIAC        FOG       37  35  92 CALM      29.65S VSB 1/4
PORT HOPE        N/A     34  34 100 SE6       29.68R WCI  29
PORT HURON     FOG       37  37 100 CALM      29.69R VSB 1/4
TRI CITIES     FOG       34  34 100 N5        29.68F VSB 1/2 WCI  30
MIDLAND        FOG       35  34  96 NE3       29.68S VSB 1
TROY           FOG       38  37  94 SW3       29.69F VSB 1/4
SAGINAW HB     FOG       36  34  93 CALM      29.68S VSB 3/4
$$
MIZ043>046-050>051-056>058-064>065-071>073-077>080-202300-
SOUTHWEST LOWER MICHIGAN

CITY           SKY/WX    TMP DP  RH WIND       PRES   REMARKS
BATTLE CREEK   CLOUDY    40  38  93 SW3       29.67R
BENTON HARBOR  CLOUDY    42  40  92 CALM      29.66R FOG
BIG RAPIDS     LGT SNOW  33  32  95 SE3       29.67S
COLDWATER      FOG       41  41 100 CALM      29.67R VSB 3/4
FREMONT        CLOUDY    34  34 100 E7        29.65F FOG     WCI  28
HOLLAND        CLOUDY    38  36  92 E5        29.67R WCI  34
GRAND RAPIDS   LGT RAIN  36  34  92 E7        29.66R VSB 3/4 WCI  30
IONIA          FOG       34  33  99 NE5       29.65F VSB 1/4 WCI  30
KALAMAZOO      FOG       40  37  89 S3        29.67R VSB 1
LUDINGTON      CLOUDY    37  37  99 SE7       29.66R FOG     WCI  31
MARSHALL       CLOUDY    40  39  99 CALM      29.66R
MOUNT PLEASANT CLOUDY    34  34  99 CALM      29.67F FOG
MUSKEGON       CLOUDY    37  36  96 E7        29.66S FOG     WCI  32
SOUTH HAVEN    CLOUDY    40  39  97 S3        29.67R FOG
$$
MIZ016>042-202300-
NORTHERN LOWER MICHIGAN

CITY           SKY/WX    TMP DP  RH WIND       PRES   REMARKS
ALPENA         FOG       34  33  96 E5        29.70S VSB 1/4 WCI  30
BEAVER ISLAND  CLOUDY    33  33 100 E5        29.67F FOG     WCI  28
BELLAIRE       CLOUDY    37  33  87 CALM      29.66S
CADILLAC       DRIZZLE   34  32  94 SE6       29.66R WCI  29
CHARLEVOIX     CLOUDY    36  34  92 NE5       29.69S WCI  32
FRANKFORT      LGT RAIN  38  35  89 CALM      29.66R
GAYLORD        CLOUDY    37  30  75 VRB3      29.64F
GRAYLING       CLOUDY    35  33  93 E3        29.66R FOG
HARBOR SPRINGS DRIZZLE   34  33  95 E8        29.67F WCI  27
HOUGHTON LAKE  CLOUDY    35  32  88 S7        29.68R WCI  29
MANISTEE       LGT RAIN  39  36  89 S5        29.67R
OSCODA         FOG       35  35  98 E3        29.68S VSB 1
PELLSTON       FOG       34  32  92 E7        29.69S VSB 1/4 WCI  28
ROGERS CITY    CLOUDY    34  33  96 NE3       29.70F FOG
TRAVERSE CITY  CLOUDY    37  33  85 CALM      29.66R
$$
MIZ007>008-015-202300-
EASTERN UPPER MICHIGAN

CITY           SKY/WX    TMP DP  RH WIND       PRES   REMARKS
KINROSS        CLOUDY    32  32 100 E8        29.71R WCI  25
MACKINAC ISLAN CLOUDY    33  33 100 E9        29.70S FOG     WCI  25
NEWBERRY       CLOUDY    33  32  96 CALM      29.67S FOG
S. S. MARIE    CLOUDY    34  32  92 SE8       29.70R FOG     WCI  27
MUNISING         N/A     35  34  96 S5        29.67R WCI  31
$$
MIZ004>006-011>014-085-202300-
CENTRAL UPPER MICHIGAN

CITY           SKY/WX    TMP DP  RH WIND       PRES   REMARKS
MANISTIQUE     DRIZZLE   32  32  99 E3        29.68S
ESCANABA       LGT RAIN  34  32  92 CALM      29.69R FOG
SAWYER-GWINN   LGT RAIN  34  32  93 S7        29.65S WCI  28
$$
MIZ001>003-009>011-084-202300-
WESTERN UPPER MICHIGAN

CITY           SKY/WX    TMP DP  RH WIND       PRES   REMARKS
IRON MOUNTAIN  LGT SNOW  33  30  88 CALM      29.65S VSB 1
HOUGHTON       CLOUDY    37  29  72 SW6       29.62S WCI  32
COPPER HARBOR    N/A     36  32  85 CALM      29.63F
IRONWOOD       RAIN      37  36  96 SE6       29.63R FOG     WCI  32
$$

ABBREVIATIONS USED IN REMARKS
   TC - TEMPERATURE IN CELSIUS
  WCI - WIND CHILL INDEX
   HX - HEAT INDEX
  VSB - VISIBILITY




USA.gov is the U.S. government's official web portal to all federal, state and local government web resources and services.